Kuchera_Ratio
12.2 12.0 8.9 7.3 4.1 1.3 0.0 0.0 0.0 0.0 0.0 0.0 0.0 0.0 0.0 0.0 0.0 0.0 0.0 0.0 0.0 0.0
12.5 11.9 11.1 8.4 6.8 3.8 0.9 0.0 0.0 0.0 0.0 0.0 0.0 0.0 0.0 0.0 0.0 0.0 0.0 0.0 0.0 0.0
13.0 11.9 10.1 8.8 8.5 6.6 4.1 1.5 0.0 0.0 0.0 0.0 0.0 0.0 0.0 0.0 0.0 0.0 0.0 0.0 0.0 0.0
13.2 12.0 10.7 10.1 8.5 7.0 4.8 2.3 0.8 0.0 0.0 0.0 0.0 0.0 0.0 0.0 0.0 0.0 0.0 0.0 0.0 0.0
13.2 12.8 12.6 12.0 9.6 6.3 5.7 3.1 1.9 0.0 0.0 0.0 0.0 0.0 0.0 0.0 0.0 0.0 0.0 0.0 0.0 0.0
14.3 14.0 13.4 12.6 10.5 7.0 6.3 5.2 3.0 1.2 0.0 0.0 0.0 0.0 0.0 0.0 0.0 0.0 0.0 0.0 0.0 0.0
15.4 14.5 13.8 13.0 11.5 8.4 6.5 6.4 4.5 2.7 0.0 0.0 0.0 0.0 0.0 0.0 0.0 0.0 0.0 0.0 0.0 0.0
15.5 14.5 14.0 13.4 12.0 9.1 7.7 6.1 4.0 2.9 0.6 0.0 0.0 0.0 0.0 0.0 0.0 0.0 0.0 0.0 0.0 0.0
16.1 15.4 14.5 13.7 12.3 11.2 9.5 7.6 4.8 3.5 1.9 0.0 0.0 0.0 0.0 0.0 0.0 0.0 0.0 0.0 0.0 0.0
16.6 16.1 15.1 13.4 12.6 12.3 11.5 8.2 5.6 3.5 2.1 0.0 0.0 0.0 0.0 0.0 0.0 0.0 0.0 0.0 0.0 0.0
16.9 16.3 14.7 14.0 13.2 12.8 12.0 9.0 6.4 3.6 1.6 0.0 0.0 0.0 0.0 0.0 0.0 0.0 0.0 0.0 0.0 0.0
16.9 16.3 15.0 14.6 14.1 13.3 11.7 8.6 7.2 4.1 1.0 0.0 0.0 0.0 0.0 0.0 0.0 0.0 0.0 0.0 0.0 0.0
16.6 15.6 15.5 14.6 14.4 13.2 11.3 8.7 7.5 5.3 1.9 0.0 0.0 0.0 0.0 0.0 0.0 0.0 0.0 0.0 0.0 0.0
16.1 15.5 14.7 14.7 14.1 13.2 11.9 9.4 9.7 8.2 6.0 4.6 0.0 0.0 0.0 0.0 0.0 0.0 0.0 0.0 0.0 0.0